Location: Treviso
(45.6670°N, 12.2450°E)
Time: 13:23:19
(UTC+02:00)

ISS - Visible Passes

Search period start: 11 May 2021 00:00
Search period end: 21 May 2021 00:00
Orbit: 417 x 422 km, 51.6° (Epoch: 11 May)

Date Brightness Start Highest point End Pass type
(mag) Time Alt. Az. Time Alt. Az. Time Alt. Az.
11 May -2.0 02:04:21 32° N 02:04:21 32° N 02:07:05 10° NE visible
11 May -1.8 03:38:18 10° NW 03:41:21 31° N 03:44:25 10° ENE visible
12 May -1.3 01:18:16 21° NE 01:18:16 21° NE 01:19:39 10° NE visible
12 May -1.7 02:51:12 12° NW 02:53:46 28° N 02:56:47 10° ENE visible
12 May -3.1 04:27:41 10° WNW 04:31:02 58° NNE 04:34:23 10° ESE visible
13 May -0.7 00:32:07 11° NE 00:32:07 11° NE 00:32:13 10° ENE visible
13 May -1.7 02:05:02 23° NW 02:06:12 28° N 02:09:11 10° ENE visible
13 May -2.5 03:40:16 10° NW 03:43:32 43° NNE 03:46:47 10° E visible
14 May -1.8 01:18:38 30° N 01:18:38 30° N 01:21:38 10° ENE visible
14 May -2.1 02:52:50 10° NW 02:56:00 35° NNE 02:59:09 10° E visible
14 May -3.8 04:29:37 10° WNW 04:32:59 65° SSW 04:36:20 10° SE visible
14 May -1.8 21:16:16 10° SSE 21:17:42 12° SE 21:19:06 10° ESE visible
14 May -3.9 22:50:38 10° SW 22:53:59 76° SSE 22:55:36 28° ENE visible
15 May -2.0 00:27:56 10° WNW 00:31:02 33° NNW 00:34:09 10° NE visible
15 May -1.8 02:05:22 10° NW 02:08:26 31° N 02:11:30 10° ENE visible
15 May -3.8 03:42:10 10° WNW 03:45:34 84° NNE 03:48:56 10° ESE visible
15 May -3.6 22:03:21 10° SW 22:06:36 48° SE 22:09:52 10° ENE visible
15 May -2.4 23:40:17 10° W 23:43:29 40° NNW 23:46:42 10° NE visible
16 May -1.7 01:17:51 10° WNW 01:20:51 28° N 01:23:51 10° ENE visible
16 May -3.2 02:54:45 10° WNW 02:58:06 59° NNE 03:01:27 10° ESE visible
16 May -2.7 04:31:52 10° W 04:34:44 26° SW 04:37:35 10° SSE visible
16 May -2.9 21:16:16 10° SSW 21:19:16 30° SE 21:22:17 10° ENE visible
16 May -2.9 22:52:41 10° W 22:55:58 51° NNW 22:59:17 10° ENE visible
17 May -1.7 00:30:17 10° WNW 00:33:16 28° N 00:36:15 10° ENE visible
17 May -2.6 02:07:21 10° NW 02:10:36 44° NNE 02:13:51 10° E visible
17 May -3.4 03:44:13 10° WNW 03:47:25 40° SW 03:50:36 10° SE visible
17 May -3.5 22:05:08 10° WSW 22:08:29 72° NNW 22:11:52 10° ENE visible
17 May -1.7 23:42:39 10° WNW 23:45:40 29° N 23:48:42 10° ENE visible
18 May -2.1 01:19:54 10° NW 01:22:58 35° N 01:22:58 35° N visible
18 May -3.8 21:17:42 10° SW 21:21:02 77° SSE 21:24:25 10° ENE visible
18 May -1.9 22:55:00 10° WNW 22:58:06 33° NNW 23:01:12 10° NE visible
19 May -1.9 00:32:26 10° NW 00:35:30 31° N 00:36:33 25° NE visible
19 May -1.0 02:09:14 10° WNW 02:09:29 12° WNW 02:09:29 12° WNW visible
19 May -2.3 22:07:20 10° W 22:10:33 39° NNW 22:13:45 10° NE visible
19 May -1.7 23:44:55 10° WNW 23:47:54 28° N 23:50:24 13° ENE visible
20 May -1.7 01:21:49 10° WNW 01:23:19 24° NW 01:23:19 24° NW visible
20 May -2.8 21:19:43 10° W 21:23:01 51° NNW 21:26:20 10° ENE visible
20 May -1.7 22:57:20 10° WNW 23:00:19 28° N 23:03:18 10° ENE visible
